Vorticity
2 2 1 1 1 2 2 3 3 3 4 4 5 5 4 5 5 5 5 6 6 6 6 6 6 6 6 6 6 7 7 6 5 5 4 5 5 6 6 7 6 6 5 4 4 4 4 4 4 4 4 4 4 4 5 5 5 5 5 5 4 4 4 4 3 3 3 4 4 4 4 4 4 4 4 4 4 3 3 3 3 4 4 4 4 4 4 3 3 3 3 3 3 3 3 3 3 4 4 4 4 4 4
2 2 2 1 1 1 2 2 2 3 4 4 5 5 4 4 5 5 5 5 6 7 8 7 7 7 6 6 6 7 7 6 5 4 3 3 4 6 7 7 7 6 5 4 3 3 4 4 4 4 4 4 4 4 4 4 4 4 4 4 4 5 5 5 5 4 3 4 4 5 5 4 4 4 4 4 4 4 4 4 4 4 4 4 4 4 4 4 3 3 3 3 3 3 3 3 3 4 4 4 4 4 4
3 3 2 2 1 1 2 2 2 2 3 3 5 5 5 5 5 5 5 5 6 7 9 9 9 8 7 6 5 6 6 5 4 3 3 3 4 6 7 7 7 6 5 4 4 4 4 4 5 5 5 4 4 4 4 4 4 4 4 4 5 5 5 6 5 5 4 4 4 4 4 4 4 3 4 4 4 4 4 4 4 4 4 4 4 4 4 4 3 3 3 3 3 3 3 3 3 4 4 4 4 4 4
4 3 3 3 2 1 1 1 1 2 3 3 4 5 6 5 5 5 6 5 5 6 9 9 10 9 7 6 4 4 4 4 4 4 4 4 5 6 7 7 6 5 5 5 5 5 5 5 5 5 5 4 4 4 4 4 4 4 4 5 5 5 6 6 6 6 5 4 4 4 4 4 3 3 3 3 4 4 4 4 4 4 4 4 4 4 4 4 4 3 3 3 3 3 3 3 3 3 3 4 4 4 4
4 4 4 3 3 2 1 1 1 2 2 2 3 4 5 4 5 5 6 5 5 6 7 9 10 9 7 5 3 2 2 3 3 4 5 5 6 6 6 6 6 5 5 5 6 6 6 6 5 5 5 5 4 4 4 3 4 4 5 5 6 6 6 6 7 7 6 6 5 4 4 4 3 3 3 3 3 4 4 4 4 4 4 4 4 4 4 4 4 4 3 3 3 3 3 3 3 3 3 4 4 4 4
4 4 4 4 3 3 2 1 1 1 2 2 2 3 4 4 4 5 5 5 5 5 6 9 9 9 8 6 4 2 1 2 3 4 5 5 5 5 6 5 5 5 5 6 7 7 7 6 6 5 5 5 5 4 4 4 4 5 5 6 6 7 7 7 7 7 7 7 6 5 5 4 4 3 3 3 3 3 4 4 4 4 4 4 4 4 4 4 4 3 3 3 3 3 3 3 3 3 3 3 3 4 4
4 4 5 5 4 4 3 2 1 1 1 2 2 3 4 5 5 4 5 5 4 4 5 7 8 8 8 7 6 4 3 2 3 4 5 5 5 4 5 5 5 5 6 7 8 7 7 6 5 5 5 5 5 5 5 5 5 5 6 7 7 8 8 7 8 8 8 8 7 6 6 5 5 4 3 3 3 4 4 4 4 4 4 4 4 4 4 3 3 3 3 3 3 3 3 3 3 3 3 3 3 3 3
4 4 5 5 5 4 4 3 2 1 0 1 2 3 4 4 4 3 4 5 4 4 5 6 6 7 8 8 8 7 6 4 4 4 4 4 4 3 4 4 5 7 8 8 8 7 6 5 5 5 5 5 6 6 5 5 6 6 7 8 8 8 8 8 8 8 8 8 8 7 7 6 5 4 4 3 3 4 4 4 4 4 4 4 4 4 4 3 3 3 3 3 3 3 3 3 3 3 3 3 3 3 3
4 4 5 5 5 5 5 4 3 2 1 1 2 2 3 3 3 3 3 4 5 5 6 6 5 6 8 9 9 9 8 7 6 5 4 3 3 3 3 4 6 7 8 8 7 6 5 4 4 5 5 6 6 6 6 6 6 6 7 7 8 8 8 8 8 8 8 8 8 8 7 7 6 5 4 4 3 4 4 4 4 4 4 4 4 4 4 4 4 3 3 3 3 3 3 3 3 3 3 3 3 3 3
4 4 4 5 5 5 5 5 4 3 2 1 1 2 2 3 3 3 3 4 4 5 6 5 5 4 6 8 9 9 10 9 8 6 5 4 3 2 2 3 5 6 7 7 6 5 4 4 4 5 5 6 6 6 6 6 6 6 5 6 6 7 8 8 8 8 8 8 8 8 8 7 6 6 5 4 4 4 4 4 4 4 4 4 4 4 4 4 4 4 3 3 3 3 3 3 3 3 3 3 3 3 3
4 4 4 4 5 5 5 5 4 4 3 2 1 2 2 3 3 3 3 3 4 5 6 5 5 4 5 7 8 9 10 10 9 8 6 5 4 2 1 2 3 4 4 4 4 4 4 4 5 5 6 7 7 7 6 6 6 6 5 4 5 5 6 7 8 8 8 8 8 8 8 8 7 6 5 4 4 4 4 4 4 4 4 4 4 4 4 4 4 4 4 4 3 3 3 3 3 3 3 3 3 3 3
4 4 4 4 5 5 5 5 5 4 4 2 1 1 2 2 3 3 3 3 4 5 6 6 5 4 4 6 7 8 9 10 10 9 7 6 5 4 2 1 0 0 1 2 2 3 4 5 6 6 7 7 7 7 7 7 7 6 5 4 4 4 4 6 8 9 9 9 8 8 8 8 7 7 6 5 4 4 4 4 4 4 4 4 4 4 4 4 4 4 4 4 4 3 3 3 3 3 3 3 3 3 3
4 4 4 4 4 5 5 5 5 5 4 3 2 1 1 2 2 3 3 3 3 4 6 6 6 5 5 6 6 7 8 10 10 10 8 7 7 6 3 1 -1 -2 -1 -0 1 3 4 5 6 7 7 7 7 7 7 7 7 6 5 4 3 3 3 5 7 9 10 10 9 8 8 8 7 7 6 5 4 4 4 4 4 4 4 4 4 4 4 4 4 4 4 4 4 3 3 3 3 3 3 3 3 3 3
3 4 4 4 4 4 5 5 5 6 5 4 3 2 2 1 2 2 3 2 2 3 5 5 5 5 5 5 5 5 6 8 9 9 8 7 7 7 6 3 -0 -2 -2 -0 2 3 4 5 6 6 7 8 8 8 7 7 7 6 6 4 3 2 1 3 6 9 11 11 10 9 8 8 8 7 7 6 5 4 4 4 4 4 4 4 4 4 4 4 4 4 4 4 4 4 3 3 3 3 3 3 3 3 3
2 3 4 4 4 4 5 5 5 6 6 5 4 3 2 1 1 2 2 2 2 2 3 4 5 5 6 5 4 3 4 6 6 6 5 5 6 8 10 7 3 -0 -2 1 3 4 5 5 5 6 6 7 8 8 8 7 7 7 6 5 4 2 0 0 3 7 11 12 12 10 8 8 8 7 7 6 5 4 4 4 4 3 4 4 4 4 4 4 4 4 4 4 4 4 4 4 3 3 3 3 3 3 3
1 2 3 3 4 4 4 5 5 5 6 5 5 4 3 2 2 1 2 2 2 2 2 4 5 6 8 6 4 3 3 3 3 2 2 3 6 9 14 13 9 5 1 2 3 4 5 4 4 5 6 7 8 8 8 8 8 7 7 7 5 3 0 -1 0 4 9 12 13 12 10 8 8 7 7 6 5 4 4 4 4 4 4 4 4 4 4 4 4 4 4 4 4 4 4 4 4 3 3 3 3 3 3
1 1 2 2 3 3 4 4 5 5 5 5 5 5 4 3 2 2 2 2 2 1 1 3 5 6 9 6 5 4 3 1 0 -0 0 3 6 10 16 19 16 11 5 3 3 4 4 4 4 4 5 6 7 8 8 8 8 8 8 8 7 5 1 -1 -2 1 5 10 13 13 12 10 8 8 7 6 6 5 4 4 4 4 4 4 4 4 4 4 4 4 4 4 4 4 4 4 4 4 3 3 3 3 3
3 2 1 1 2 3 3 4 4 5 5 5 5 5 5 4 3 2 2 2 2 1 0 1 3 5 7 5 5 5 4 1 0 -0 1 3 6 9 16 20 20 17 10 5 3 3 4 4 4 5 5 6 7 7 7 8 8 8 8 8 8 6 3 -0 -2 -2 1 6 11 13 14 11 10 8 7 7 6 5 4 4 4 4 4 4 4 4 4 4 4 4 4 4 4 4 4 4 4 4 4 4 4 4 4
4 3 2 1 1 2 3 3 4 4 5 5 5 5 5 4 3 2 1 2 2 1 1 1 2 3 3 3 4 5 4 2 1 1 2 3 5 7 12 17 20 20 14 7 3 1 2 4 5 5 5 6 6 7 7 7 8 8 8 9 9 7 5 2 -1 -3 -3 2 7 12 15 13 11 9 8 7 6 5 4 4 4 4 4 4 4 4 4 4 4 4 4 4 4 4 4 4 4 4 4 4 4 4 4
6 4 3 2 1 1 2 3 3 4 4 5 5 5 5 4 4 3 2 1 1 1 1 1 1 1 2 2 3 4 3 2 2 2 3 3 4 5 8 13 19 21 17 9 3 1 1 3 5 6 6 6 6 6 7 7 8 8 8 9 9 9 7 4 1 -2 -4 -1 3 8 13 14 13 11 9 7 6 5 4 4 4 4 4 4 4 4 4 4 4 4 4 4 4 4 4 4 4 4 4 4 4 4 4
9 6 5 3 2 1 1 2 3 4 4 4 5 5 5 5 4 4 3 2 1 1 1 1 1 1 2 3 3 3 2 2 2 3 3 3 3 3 5 10 17 22 20 12 5 1 -0 2 4 6 6 6 6 6 6 7 8 8 8 9 9 9 8 6 3 0 -2 -3 -0 4 10 14 14 13 10 8 7 6 5 4 4 4 4 4 4 4 4 4 4 4 4 4 4 4 4 4 4 4 4 4 4 4 4
13 8 6 5 4 3 2 1 2 3 4 4 4 5 5 5 4 4 4 3 2 2 1 1 1 1 3 2 2 2 2 2 3 3 3 3 3 3 3 7 14 20 22 16 9 3 -1 1 3 5 6 6 6 6 6 7 7 8 8 9 9 9 9 7 5 3 0 -2 -1 2 7 12 14 14 12 9 7 6 5 4 4 4 4 4 4 4 4 4 4 4 4 4 4 4 4 4 4 4 4 4 4 4 4
19 12 7 6 5 4 3 2 2 2 3 4 4 4 4 4 4 4 4 3 3 3 2 1 0 0 1 -1 -0 1 1 2 3 4 4 3 3 3 2 4 9 16 22 20 14 7 0 -0 1 3 5 6 6 6 6 7 7 8 8 9 9 10 9 8 7 5 3 0 -1 1 4 9 13 15 13 10 8 6 5 4 4 4 4 4 4 4 4 4 4 4 4 4 4 4 4 4 4 4 4 4 4 4 4
27 19 10 7 6 6 4 3 2 2 2 3 4 4 4 4 4 4 4 4 3 3 2 1 0 -0 -1 -2 -2 -1 -1 1 2 3 4 4 3 3 2 2 5 10 18 22 19 12 4 0 0 2 4 5 6 6 6 7 7 7 8 9 9 9 9 9 8 7 6 3 1 1 3 8 12 15 14 11 8 6 5 4 4 4 4 4 4 4 4 4 4 4 4 4 4 4 5 5 5 5 4 4 4 4 4
32 27 17 10 7 6 6 4 3 2 1 2 3 4 5 4 4 4 4 4 4 3 3 2 1 0 -0 -1 -1 -1 -1 -0 1 3 4 4 4 4 3 2 3 6 13 21 22 18 9 3 0 1 3 5 6 6 6 6 7 7 8 8 9 9 9 9 9 8 8 5 4 3 4 7 11 14 15 12 9 6 5 4 4 4 4 4 4 4 4 4 4 4 4 4 4 5 5 5 5 5 4 4 4 4 3
33 32 26 16 9 6 6 6 4 3 2 2 2 3 4 4 4 4 4 4 4 4 3 5 3 2 1 1 1 1 2 3 4 4 5 6 6 5 4 2 2 4 9 19 23 21 14 6 1 0 3 5 6 6 6 6 7 7 8 8 9 9 9 9 9 8 8 7 6 5 5 8 11 14 15 12 9 7 5 4 4 4 4 4 4 4 4 4 4 4 4 4 5 5 5 5 5 4 4 4 4 4 3
31 35 34 23 14 7 6 6 6 5 3 2 2 3 4 4 4 4 3 4 4 4 3 5 5 4 3 3 3 5 8 7 6 6 7 7 7 7 5 3 2 3 7 17 22 23 18 9 3 0 2 4 6 6 6 6 7 7 8 8 9 9 9 9 9 8 8 8 7 6 6 9 12 14 14 12 9 7 5 4 4 4 4 4 4 4 4 4 4 4 4 4 4 4 4 4 4 4 4 4 4 4 4
26 33 37 31 21 11 6 6 6 6 4 3 2 2 3 4 4 4 3 3 4 4 3 5 5 5 4 3 4 7 8 5 4 6 8 10 11 10 8 5 3 4 7 15 21 23 20 11 4 1 2 4 5 6 6 6 7 7 8 8 9 9 9 9 8 8 8 8 7 7 7 11 13 14 13 11 9 6 5 4 4 4 4 4 4 4 4 4 4 4 4 4 4 4 4 4 4 4 4 4 4 4 4
19 27 35 36 29 19 8 6 6 6 6 4 3 2 3 4 4 4 4 3 3 3 3 4 5 5 4 3 5 6 5 -1 1 6 9 16 18 16 11 7 6 6 8 15 20 22 20 13 6 2 1 3 4 5 6 7 7 8 8 8 8 8 8 8 8 8 8 8 8 7 8 12 14 13 12 10 8 6 4 4 3 4 4 4 4 4 4 4 4 4 4 4 4 4 4 4 4 4 4 4 4 4 4
12 20 30 36 35 27 14 8 6 6 6 5 4 3 2 3 4 4 4 3 3 3 3 4 4 4 4 3 3 2 1 3 7 11 12 19 25 25 16 12 9 8 9 15 19 21 20 13 7 2 1 2 4 5 6 7 7 8 8 8 8 8 8 8 8 8 8 8 8 8 9 13 14 13 11 9 7 6 4 3 3 3 4 4 4 4 4 4 4 4 4 4 5 5 5 5 4 4 4 4 4 4 4
7 13 21 32 37 34 23 12 7 6 7 6 5 4 2 3 3 4 4 4 3 3 3 3 4 5 3 2 3 7 19 33 32 24 15 19 27 30 21 15 10 8 10 15 19 21 20 14 8 3 1 2 3 4 6 7 7 8 7 7 7 7 7 7 7 8 8 8 8 8 9 13 14 12 10 9 7 6 5 4 4 4 4 4 4 4 4 4 4 4 4 5 5 5 5 5 5 4 4 4 4 4 4
5 8 14 24 33 38 33 19 10 7 7 7 6 5 3 3 3 4 4 4 3 3 3 3 4 4 4 3 3 10 32 44 39 24 11 18 25 28 19 11 6 5 8 14 19 23 22 16 10 5 1 1 2 4 5 6 7 7 6 6 6 6 6 7 7 7 7 8 8 8 10 13 13 12 10 9 7 6 5 4 4 4 4 4 4 4 4 4 4 4 5 5 5 5 5 5 5 5 5 4 4 4 4
4 5 8 16 27 36 39 26 15 8 7 7 6 6 4 4 3 4 4 4 4 3 3 3 3 4 5 4 2 5 19 21 16 11 12 21 21 16 8 3 1 2 6 12 19 24 24 19 12 6 2 1 2 3 4 5 5 5 5 5 5 5 5 6 7 7 7 8 8 9 10 12 13 12 10 8 7 6 5 4 4 3 3 3 4 4 4 4 5 5 5 5 5 5 5 5 5 5 5 4 4 4 4
4 4 5 10 19 30 39 33 22 12 7 7 7 6 5 4 4 4 4 4 4 3 3 3 3 4 5 4 2 1 4 -11 -22 -18 10 18 12 3 -1 -1 -1 1 4 10 17 23 25 21 14 7 2 1 1 2 4 4 4 4 4 4 4 4 4 5 6 7 8 8 9 9 10 12 12 11 9 8 7 6 5 4 3 3 4 4 4 4 5 5 5 5 5 5 5 5 5 5 5 5 5 5 4 4 4
5 4 4 7 13 23 35 36 29 18 9 8 7 7 5 4 4 4 4 4 4 4 3 3 3 4 6 5 3 0 -2 -28 -45 -42 -4 5 2 -4 -0 3 3 2 3 8 15 22 25 22 16 8 3 1 1 2 3 3 4 3 3 3 3 3 4 5 6 7 8 9 9 9 10 11 12 11 9 7 6 6 5 4 4 4 4 4 5 5 5 5 5 5 5 5 5 5 5 5 5 5 5 4 4 4 4
7 5 4 5 8 16 28 36 33 24 13 9 8 7 6 5 4 4 4 4 4 3 3 3 3 4 6 5 4 3 2 -17 -32 -34 -15 -7 -7 -7 2 7 7 5 3 7 13 20 25 22 16 9 3 1 1 1 2 3 3 3 3 3 3 4 4 5 6 8 9 9 9 9 10 10 10 10 8 7 6 5 5 4 4 4 4 4 5 5 5 5 5 5 5 5 5 5 5 5 5 5 5 4 4 4 4
9 7 5 4 6 11 20 32 34 29 18 12 9 8 7 5 4 4 4 4 4 3 3 3 3 3 4 4 5 6 7 -0 -7 -10 -8 -8 -10 -11 -5 4 8 8 4 6 11 17 24 22 17 9 3 1 0 1 2 3 3 3 3 4 4 4 4 5 6 8 9 9 10 9 9 9 9 9 8 7 6 5 4 4 4 4 4 4 4 5 5 5 5 5 5 5 5 5 5 5 5 5 4 4 4 4 4
10 8 6 4 5 7 13 26 32 32 23 16 11 8 7 6 5 4 3 3 3 3 3 3 3 3 4 4 4 5 6 6 6 5 3 -2 -8 -12 -11 -2 5 8 6 6 10 16 23 21 16 10 3 1 0 0 2 2 3 4 4 5 5 5 5 6 7 8 9 9 9 9 9 8 8 8 7 7 6 5 4 4 4 4 4 4 4 5 5 5 5 5 5 5 5 5 5 5 5 5 4 4 4 4 4
11 10 7 5 4 5 9 20 29 32 28 20 14 10 7 6 5 4 3 3 3 4 3 3 3 4 4 4 4 4 4 4 5 6 7 3 -2 -7 -8 -4 2 7 7 6 9 14 21 20 16 10 4 1 -0 0 1 2 3 4 5 6 6 6 6 6 7 8 8 9 9 9 8 8 8 7 7 6 6 5 5 4 4 5 5 5 5 5 5 5 5 5 6 6 6 6 5 5 5 5 4 4 4 4 3
12 11 10 7 5 4 6 15 24 30 30 23 17 12 8 7 5 3 2 3 5 5 3 3 3 4 5 5 5 4 3 2 2 4 8 4 2 -1 -5 -2 2 6 8 6 8 13 19 20 16 11 5 1 -0 -0 1 2 4 5 6 7 7 7 7 7 7 7 8 8 8 8 8 8 7 7 7 6 6 5 5 5 5 5 5 5 5 5 5 5 5 6 6 6 6 6 5 5 5 4 4 4 3 3 3
12 12 11 8 6 4 5 11 19 26 29 26 21 15 9 8 5 2 2 4 6 6 4 3 3 4 6 6 6 5 4 3 3 4 9 3 1 0 -3 -1 3 7 9 7 8 11 17 18 16 11 6 2 0 -0 1 2 4 5 7 8 8 8 7 7 7 7 7 8 8 8 8 8 7 7 6 6 6 5 5 5 5 5 5 5 5 5 5 6 6 6 6 6 6 6 5 5 4 4 3 3 3 3 3
13 13 13 10 7 5 4 8 15 23 28 28 24 18 11 9 6 3 2 4 5 5 3 3 2 2 4 7 8 7 4 4 5 7 10 -1 -3 -1 -2 -2 3 9 11 8 8 11 15 16 15 11 7 3 1 -0 1 2 4 6 7 8 8 8 7 7 7 7 7 7 7 8 8 7 7 7 7 7 6 6 6 5 5 5 5 5 5 5 6 6 6 6 6 6 6 5 5 4 4 3 3 3 3 3 4
13 14 14 11 8 5 4 7 12 19 26 28 26 21 13 10 6 3 1 3 4 5 4 3 1 -1 -1 4 7 7 5 5 7 9 8 -7 -10 -7 -5 -4 3 11 13 8 8 10 13 15 13 11 7 3 1 0 1 2 4 6 7 8 8 8 7 7 6 6 6 7 7 7 7 7 7 7 7 7 7 7 7 6 6 5 5 5 5 6 6 6 6 6 6 6 5 5 4 3 3 3 3 3 3 4 4
13 14 15 12 9 6 4 6 10 16 22 27 28 24 15 10 7 4 1 2 4 5 4 4 1 -3 -6 -1 3 5 4 5 8 10 6 -10 -15 -12 -8 -3 6 14 13 9 8 10 12 13 13 10 8 4 2 1 1 2 4 6 7 8 8 8 7 7 6 6 6 6 7 7 7 7 7 7 7 8 8 8 7 7 6 6 5 6 6 6 6 6 6 6 6 5 5 4 3 3 3 3 3 3 4 4 5
13 14 16 14 10 7 5 5 8 13 19 25 29 27 19 10 7 4 1 1 4 5 4 5 3 -1 -6 -4 -1 2 3 5 8 9 4 -10 -14 -11 -6 2 11 17 12 8 8 10 11 12 12 10 8 4 2 1 2 3 4 6 7 8 8 8 7 7 6 6 6 6 6 7 7 7 7 7 7 8 8 8 7 6 6 6 6 6 6 6 6 6 6 6 5 4 4 3 3 2 2 3 3 4 4 5 6
13 13 16 15 11 7 5 5 7 11 17 23 29 29 23 11 6 4 2 2 4 6 6 5 3 1 -3 -4 -2 -0 2 5 9 9 5 -6 -9 -7 -1 8 15 17 10 8 8 9 10 11 12 11 8 5 3 2 2 3 4 6 7 8 8 8 7 7 6 6 6 6 6 6 7 7 7 7 7 7 7 6 6 6 7 7 7 7 7 7 7 6 6 5 4 3 3 2 2 2 3 3 4 4 5 6 6
15 13 16 15 12 8 6 5 6 9 15 22 28 30 25 14 7 4 3 3 5 7 8 4 3 2 1 -0 -1 -0 2 6 11 13 9 -1 -3 -1 6 13 16 15 8 7 7 7 8 10 11 10 8 5 3 2 2 3 4 5 7 7 7 7 7 6 6 6 6 6 6 7 7 7 7 7 7 6 6 6 6 6 7 7 7 7 7 6 6 5 5 4 3 2 2 2 2 3 3 4 5 5 6 7 7
16 14 16 16 13 9 6 5 6 8 13 21 27 31 27 16 8 3 2 4 7 9 9 6 3 2 2 2 1 1 2 8 16 20 13 2 3 9 14 16 15 11 6 7 6 6 6 8 9 9 9 6 3 2 2 2 3 5 6 7 7 7 6 6 6 6 6 6 6 7 7 7 7 6 6 5 5 6 6 7 7 6 6 6 6 5 5 4 3 2 2 2 2 3 3 3 4 5 6 6 7 7 7
18 15 18 17 14 10 6 5 6 8 12 20 27 31 29 17 8 2 3 6 8 9 9 6 4 3 3 3 2 2 2 7 18 24 16 1 3 13 23 21 15 8 4 5 5 4 5 7 8 9 8 6 4 2 2 2 3 4 5 6 6 6 6 6 6 6 6 6 6 7 7 7 6 5 5 5 6 7 7 7 6 6 5 5 5 4 3 2 2 2 2 3 3 4 4 4 5 6 7 7 7 7 7
20 18 20 18 15 10 7 6 6 7 12 19 26 30 30 19 8 1 1 5 8 9 9 7 5 3 2 3 3 2 -1 0 9 17 15 -3 -2 8 22 19 11 4 1 2 5 7 7 8 8 8 8 6 4 2 2 2 2 3 4 5 6 6 6 6 6 6 6 6 6 6 6 6 5 5 6 6 7 7 7 6 6 5 5 4 4 3 2 2 2 3 3 4 4 4 5 6 6 7 8 8 8 8 8
23 22 22 19 15 10 7 6 6 7 12 19 26 30 31 20 9 2 0 5 8 10 10 7 4 3 3 3 3 2 -1 -4 -2 1 4 -3 -0 8 17 11 4 -2 -3 4 10 14 13 11 9 9 9 7 5 3 2 2 3 3 4 5 6 6 6 6 6 6 6 6 6 6 5 5 5 6 6 6 6 6 5 5 5 4 4 4 3 3 3 3 4 4 4 5 5 5 6 7 7 8 8 8 8 8 8
26 26 25 20 15 10 8 7 6 8 12 20 25 29 32 21 11 4 2 5 8 11 12 7 4 3 3 4 3 2 1 -2 -5 -7 -8 1 9 14 10 1 -5 -7 -4 7 17 22 18 14 12 11 10 8 6 4 3 3 4 4 4 5 6 6 6 6 6 5 5 5 5 5 5 5 5 5 5 5 5 4 4 4 4 4 3 3 4 4 4 4 4 5 5 5 6 6 7 7 8 8 8 8 8 8 8
32 30 26 19 14 10 8 8 7 8 13 21 25 28 31 21 11 3 0 3 7 11 13 9 5 3 3 3 2 1 2 1 -1 -4 -8 8 18 18 0 -7 -8 -2 6 13 15 16 19 15 12 11 11 8 7 5 4 4 4 5 5 5 5 6 6 6 6 6 5 5 5 5 5 5 5 5 4 4 4 4 3 3 3 3 3 3 3 4 4 4 5 5 5 6 6 7 7 8 8 8 8 8 8 8 8
35 29 23 17 13 10 9 8 7 9 15 22 25 25 29 24 14 5 -1 3 7 11 14 10 6 3 3 2 1 0 2 2 1 1 4 21 25 16 -5 -4 2 10 20 24 18 11 10 14 12 8 8 8 7 5 5 4 5 5 5 5 5 6 6 6 6 6 6 5 5 5 5 5 5 5 4 4 4 4 4 3 3 3 3 3 4 4 4 4 5 5 6 6 7 7 8 8 8 9 9 8 8 8 8
30 25 19 15 13 11 9 7 7 10 17 23 23 22 20 24 18 7 1 3 8 12 14 11 7 4 2 2 2 1 2 2 1 4 15 26 22 14 13 16 18 21 24 25 20 13 7 10 10 8 4 7 7 6 5 5 4 4 4 5 5 5 6 6 6 6 5 5 5 5 5 5 5 5 5 5 5 5 5 5 4 4 4 4 5 5 5 5 6 6 7 7 7 8 8 8 8 8 8 8 8 8 7
25 21 18 15 13 12 9 7 7 11 20 23 21 18 19 23 17 8 1 2 6 11 14 11 7 4 2 2 2 2 3 2 1 2 11 12 7 9 30 36 29 20 16 16 17 15 10 7 6 7 5 5 5 5 5 4 4 4 4 4 5 5 6 7 7 6 6 5 5 5 5 5 5 6 6 6 6 6 6 6 6 6 6 6 6 6 7 7 7 7 8 8 8 8 8 8 8 8 8 8 8 7 7
22 19 18 15 13 11 9 8 9 14 23 24 18 13 21 21 17 11 4 3 6 10 13 11 8 5 3 3 2 2 3 1 -4 -7 -5 -6 -6 -0 14 31 29 19 13 14 13 12 10 6 5 5 3 3 4 5 3 3 4 4 4 4 5 6 7 7 7 7 6 6 6 5 5 6 6 6 6 6 6 7 7 7 7 7 7 8 8 8 8 8 8 8 8 8 8 8 8 8 8 8 8 7 7 7 7
21 18 16 13 10 7 6 7 11 17 25 25 17 11 16 19 17 12 6 4 6 9 12 11 8 5 3 3 2 2 2 -2 -8 -13 -15 -15 -12 -7 1 14 20 20 15 12 8 5 2 4 5 4 -1 1 4 7 5 4 4 4 5 5 5 6 7 7 7 7 7 6 6 6 6 6 6 6 6 6 7 7 7 8 8 8 8 8 8 8 8 8 8 8 8 8 8 8 8 8 8 8 7 7 7 7 7
18 15 13 11 8 5 4 7 12 19 27 25 17 11 13 19 18 13 7 4 5 8 11 11 9 6 3 3 3 2 2 -4 -8 -11 -12 -12 -10 -6 1 10 16 19 14 9 8 7 4 3 3 2 1 1 2 4 7 6 5 5 5 5 5 5 6 6 7 7 6 6 6 6 5 5 5 5 6 6 7 7 8 8 8 8 8 8 8 8 8 8 8 8 8 7 7 7 7 7 7 7 7 7 7 7 7
14 12 11 8 6 4 4 7 13 20 28 25 17 11 14 19 18 14 8 4 4 7 10 10 9 6 4 3 2 1 -0 -4 -5 -6 -7 -7 -5 -0 7 16 21 20 12 6 8 12 15 9 4 2 3 2 1 1 4 6 6 5 5 5 5 5 5 5 5 5 5 5 5 4 4 4 4 4 5 6 6 7 7 8 8 8 8 8 8 8 7 7 7 7 7 7 7 7 7 7 7 7 7 7 7 7 6
11 10 8 6 4 4 5 9 15 22 27 23 16 12 15 19 19 16 10 6 5 7 10 10 9 7 4 2 2 1 -1 -3 -3 -3 -5 -5 -2 5 14 24 26 20 10 8 10 13 13 9 6 4 4 4 3 3 3 3 4 5 6 5 5 4 4 4 3 3 2 2 2 2 2 3 3 4 4 5 5 6 7 7 8 8 8 7 7 7 7 7 7 7 7 7 7 7 7 7 7 7 7 7 7 6 6
Height
5799 5800 5801 5802 5803 5804 5805 5806 5807 5808 5808 5809 5811 5813 5815 5814 5814 5815 5816 5816 5816 5815 5814 5816 5818 5820 5821 5820 5821 5821 5823 5823 5823 5824 5825 5826 5827 5828 5830 5831 5833 5834 5835 5837 5838 5839 5840 5841 5842 5843 5843 5843 5844 5845 5845 5846 5848 5849 5850 5850 5851 5852 5853 5854 5854 5854 5854 5854 5854 5855 5856 5856 5855 5854 5854 5855 5855 5855 5855 5855 5855 5855 5855 5855 5855 5855 5855 5855 5855 5855 5854 5854 5854 5854 5854 5853 5853 5853 5853 5853 5853 5852 5852
5796 5797 5798 5799 5800 5801 5802 5803 5804 5805 5806 5807 5809 5812 5812 5812 5812 5813 5814 5814 5814 5813 5814 5813 5815 5818 5818 5818 5818 5819 5820 5821 5821 5822 5823 5824 5825 5827 5828 5829 5831 5832 5833 5835 5836 5838 5839 5840 5840 5841 5842 5842 5843 5843 5844 5845 5846 5847 5848 5849 5849 5850 5851 5852 5853 5853 5853 5853 5853 5853 5854 5854 5854 5853 5853 5853 5853 5853 5854 5854 5854 5854 5854 5854 5854 5854 5854 5854 5854 5854 5853 5853 5853 5853 5853 5853 5852 5852 5852 5852 5852 5851 5851
5793 5794 5795 5796 5798 5798 5799 5801 5802 5803 5804 5805 5807 5809 5809 5809 5810 5811 5812 5813 5812 5812 5813 5813 5814 5815 5815 5815 5816 5817 5818 5818 5819 5820 5821 5822 5823 5825 5826 5828 5829 5830 5832 5833 5834 5836 5837 5838 5839 5839 5840 5840 5841 5841 5842 5843 5844 5845 5847 5848 5848 5848 5849 5850 5852 5853 5853 5853 5852 5852 5853 5853 5853 5853 5852 5852 5852 5852 5852 5853 5853 5853 5853 5853 5853 5853 5853 5853 5853 5853 5852 5852 5852 5852 5852 5851 5851 5851 5851 5851 5850 5850 5850
5790 5791 5792 5793 5794 5796 5797 5798 5799 5800 5801 5802 5804 5806 5806 5807 5808 5808 5810 5810 5811 5810 5810 5811 5812 5812 5812 5813 5814 5815 5816 5817 5817 5818 5818 5819 5821 5823 5824 5826 5827 5828 5830 5831 5833 5834 5835 5836 5837 5838 5838 5839 5839 5840 5840 5841 5842 5843 5845 5846 5847 5847 5848 5848 5849 5851 5851 5852 5852 5852 5851 5851 5852 5851 5851 5850 5850 5850 5851 5851 5852 5852 5852 5852 5852 5852 5852 5852 5852 5851 5851 5851 5851 5851 5850 5850 5850 5850 5850 5849 5849 5849 5849
5786 5788 5789 5790 5791 5793 5794 5795 5796 5798 5798 5800 5800 5801 5803 5803 5805 5806 5806 5807 5808 5809 5809 5809 5809 5809 5809 5810 5812 5813 5814 5814 5815 5816 5816 5817 5819 5821 5823 5824 5825 5827 5828 5829 5831 5833 5833 5834 5835 5836 5837 5837 5838 5838 5838 5839 5840 5842 5843 5844 5845 5845 5846 5846 5847 5848 5849 5850 5850 5850 5850 5850 5850 5850 5850 5849 5849 5849 5849 5850 5850 5850 5850 5850 5850 5850 5850 5850 5850 5850 5850 5850 5850 5849 5849 5849 5849 5849 5849 5848 5848 5848 5848
5783 5784 5785 5787 5788 5789 5791 5792 5793 5794 5796 5797 5798 5798 5798 5799 5801 5803 5803 5804 5804 5805 5806 5807 5808 5807 5806 5808 5810 5811 5812 5812 5813 5813 5814 5815 5817 5819 5821 5822 5823 5825 5826 5828 5829 5831 5832 5833 5833 5834 5835 5835 5836 5836 5837 5838 5838 5840 5841 5842 5843 5843 5844 5844 5845 5846 5847 5848 5848 5848 5848 5848 5848 5848 5848 5848 5848 5848 5848 5848 5849 5849 5849 5849 5849 5849 5849 5849 5849 5849 5849 5848 5848 5848 5848 5848 5848 5848 5848 5848 5847 5847 5847
5779 5780 5782 5783 5785 5786 5788 5789 5790 5792 5793 5794 5795 5796 5796 5797 5798 5799 5801 5802 5803 5803 5804 5805 5805 5805 5805 5806 5807 5808 5809 5810 5811 5811 5812 5813 5815 5817 5818 5820 5821 5823 5824 5826 5828 5829 5830 5831 5832 5832 5833 5834 5834 5835 5835 5836 5837 5838 5839 5840 5841 5842 5842 5843 5843 5844 5845 5846 5846 5847 5847 5847 5847 5847 5847 5847 5847 5847 5847 5847 5848 5848 5848 5848 5848 5848 5848 5848 5848 5848 5847 5847 5847 5847 5847 5847 5847 5846 5846 5846 5846 5846 5846
5775 5777 5778 5780 5782 5783 5784 5786 5787 5788 5789 5792 5794 5795 5793 5794 5795 5797 5800 5801 5801 5802 5803 5803 5802 5802 5804 5804 5805 5806 5807 5808 5808 5809 5810 5811 5813 5815 5816 5818 5819 5821 5823 5824 5826 5827 5828 5829 5830 5831 5831 5832 5833 5833 5833 5834 5835 5836 5837 5838 5839 5840 5840 5841 5841 5842 5843 5844 5844 5845 5845 5845 5845 5846 5846 5846 5845 5845 5845 5846 5846 5846 5846 5846 5846 5846 5846 5846 5846 5846 5846 5846 5846 5846 5846 5845 5845 5845 5845 5845 5845 5845 5844
5771 5773 5775 5776 5778 5779 5781 5782 5784 5785 5787 5789 5790 5791 5791 5792 5794 5796 5798 5798 5799 5799 5799 5800 5799 5800 5801 5801 5802 5803 5804 5805 5806 5807 5808 5809 5811 5813 5814 5816 5818 5819 5821 5822 5824 5825 5827 5828 5828 5829 5830 5830 5831 5831 5832 5833 5833 5834 5835 5836 5837 5838 5838 5838 5839 5840 5841 5842 5842 5843 5843 5843 5844 5844 5844 5844 5844 5844 5844 5844 5845 5845 5845 5845 5845 5845 5845 5845 5845 5844 5844 5844 5844 5844 5844 5844 5844 5844 5844 5843 5843 5843 5843
5766 5768 5771 5773 5774 5776 5778 5779 5781 5782 5783 5786 5787 5787 5788 5790 5793 5794 5794 5796 5796 5796 5796 5797 5797 5798 5799 5799 5799 5800 5802 5803 5804 5804 5805 5807 5809 5811 5812 5814 5815 5817 5819 5821 5822 5823 5825 5826 5827 5827 5828 5829 5829 5829 5830 5831 5832 5833 5834 5834 5835 5836 5837 5837 5837 5838 5838 5839 5840 5841 5841 5842 5842 5843 5843 5843 5843 5843 5843 5843 5843 5843 5843 5843 5843 5843 5843 5843 5843 5843 5843 5843 5843 5843 5843 5843 5843 5843 5842 5842 5842 5842 5842
5762 5764 5767 5768 5770 5772 5774 5776 5777 5779 5781 5782 5783 5785 5786 5788 5790 5791 5792 5793 5793 5793 5793 5794 5795 5795 5797 5796 5797 5798 5799 5800 5801 5802 5803 5804 5806 5808 5810 5812 5813 5815 5817 5819 5820 5822 5823 5824 5825 5826 5826 5827 5828 5828 5828 5829 5830 5831 5832 5833 5834 5835 5835 5834 5835 5836 5836 5837 5838 5839 5839 5840 5840 5841 5841 5841 5841 5841 5841 5842 5842 5842 5842 5842 5842 5842 5842 5842 5842 5842 5842 5842 5842 5842 5841 5841 5841 5841 5841 5841 5841 5840 5840
5758 5760 5762 5764 5766 5768 5770 5772 5774 5775 5777 5778 5780 5781 5783 5786 5788 5788 5789 5790 5790 5791 5791 5792 5792 5793 5794 5794 5794 5795 5797 5798 5799 5800 5801 5802 5804 5806 5808 5809 5811 5813 5815 5817 5818 5820 5821 5822 5823 5824 5825 5825 5826 5826 5826 5827 5828 5829 5831 5832 5833 5833 5834 5833 5834 5834 5834 5835 5836 5837 5837 5838 5838 5839 5839 5839 5839 5839 5839 5840 5840 5840 5840 5840 5840 5840 5840 5840 5840 5840 5840 5840 5840 5840 5840 5840 5840 5839 5839 5839 5839 5839 5839
5753 5755 5758 5760 5762 5764 5766 5768 5770 5772 5774 5775 5777 5778 5780 5783 5784 5785 5786 5787 5788 5788 5788 5789 5789 5789 5791 5793 5793 5793 5795 5796 5797 5798 5799 5800 5802 5804 5805 5807 5809 5811 5813 5815 5817 5818 5819 5820 5821 5822 5823 5823 5824 5824 5825 5825 5826 5827 5828 5829 5831 5832 5833 5833 5833 5833 5833 5833 5834 5834 5835 5836 5837 5837 5838 5838 5838 5838 5838 5838 5838 5839 5839 5839 5839 5838 5838 5838 5838 5838 5838 5838 5838 5838 5838 5838 5838 5838 5838 5838 5838 5837 5837
5748 5751 5753 5755 5758 5760 5762 5764 5766 5768 5770 5772 5773 5774 5776 5779 5781 5782 5783 5783 5784 5785 5786 5787 5787 5787 5788 5792 5791 5791 5793 5794 5795 5796 5797 5798 5799 5801 5803 5805 5807 5809 5811 5813 5815 5816 5817 5818 5819 5820 5821 5822 5822 5823 5823 5823 5824 5825 5826 5828 5829 5830 5831 5832 5832 5831 5831 5832 5832 5833 5833 5834 5835 5835 5836 5836 5836 5836 5836 5837 5837 5837 5837 5837 5837 5837 5837 5837 5837 5837 5837 5837 5837 5837 5837 5837 5837 5837 5836 5836 5836 5836 5835
5743 5746 5748 5751 5753 5756 5758 5760 5763 5764 5766 5768 5770 5771 5773 5775 5778 5779 5780 5781 5782 5783 5783 5785 5785 5786 5786 5790 5789 5788 5790 5792 5793 5794 5795 5795 5797 5799 5801 5802 5804 5807 5809 5811 5813 5814 5815 5816 5817 5818 5819 5819 5820 5821 5822 5822 5823 5823 5824 5826 5827 5828 5829 5830 5831 5830 5830 5830 5830 5830 5831 5832 5832 5833 5834 5834 5834 5834 5835 5835 5835 5836 5836 5836 5836 5836 5836 5835 5835 5835 5835 5835 5835 5835 5835 5835 5835 5835 5835 5835 5834 5834 5834
5738 5741 5743 5746 5749 5752 5754 5756 5758 5760 5763 5764 5766 5768 5769 5771 5774 5776 5777 5778 5778 5779 5780 5782 5783 5784 5785 5787 5787 5786 5788 5789 5791 5792 5793 5793 5794 5796 5798 5800 5802 5804 5807 5809 5811 5812 5813 5814 5815 5816 5817 5818 5818 5819 5819 5820 5820 5821 5823 5824 5825 5827 5828 5829 5829 5829 5829 5828 5829 5829 5829 5830 5830 5831 5832 5832 5833 5833 5833 5833 5833 5834 5834 5834 5834 5834 5834 5834 5834 5834 5834 5834 5834 5834 5834 5834 5833 5833 5833 5833 5833 5833 5833
5733 5735 5738 5742 5744 5747 5749 5752 5754 5756 5758 5760 5763 5764 5766 5768 5770 5773 5774 5774 5775 5776 5777 5779 5783 5785 5787 5786 5784 5784 5785 5787 5788 5790 5791 5791 5792 5794 5796 5797 5799 5802 5804 5807 5809 5810 5811 5812 5813 5814 5815 5815 5816 5817 5817 5817 5818 5819 5821 5822 5823 5825 5826 5827 5828 5828 5828 5827 5827 5828 5828 5828 5828 5829 5829 5830 5831 5831 5831 5832 5832 5832 5832 5832 5832 5832 5832 5832 5832 5832 5832 5832 5832 5832 5832 5832 5832 5832 5832 5832 5831 5831 5831
5727 5729 5733 5736 5739 5742 5745 5747 5750 5752 5754 5757 5758 5760 5763 5764 5766 5768 5770 5772 5772 5773 5775 5777 5782 5787 5789 5785 5782 5782 5782 5784 5786 5788 5789 5789 5790 5791 5793 5794 5797 5799 5802 5804 5806 5808 5809 5810 5811 5812 5813 5813 5814 5814 5814 5815 5816 5817 5819 5820 5821 5823 5824 5825 5826 5826 5827 5826 5826 5827 5827 5827 5827 5827 5828 5828 5829 5829 5830 5830 5830 5830 5830 5830 5830 5830 5830 5830 5830 5830 5830 5830 5830 5830 5830 5830 5830 5830 5830 5830 5830 5830 5829
5721 5724 5727 5731 5734 5737 5740 5743 5745 5748 5750 5753 5754 5756 5759 5761 5762 5764 5767 5768 5770 5771 5772 5775 5779 5783 5788 5784 5781 5779 5779 5781 5783 5785 5786 5787 5788 5789 5790 5792 5794 5797 5799 5801 5803 5805 5807 5808 5809 5810 5811 5812 5812 5812 5812 5813 5814 5815 5817 5818 5819 5820 5821 5823 5823 5823 5824 5825 5825 5825 5825 5825 5825 5825 5826 5826 5827 5827 5828 5828 5828 5828 5828 5828 5828 5828 5828 5828 5829 5829 5829 5829 5829 5829 5829 5829 5829 5829 5829 5828 5828 5828 5828
5714 5718 5721 5725 5728 5732 5735 5738 5741 5743 5746 5749 5751 5753 5754 5757 5758 5760 5762 5765 5767 5768 5769 5772 5775 5778 5782 5781 5779 5777 5777 5779 5781 5783 5784 5785 5785 5787 5788 5790 5792 5794 5796 5798 5801 5803 5804 5806 5807 5808 5809 5809 5810 5810 5810 5811 5812 5813 5814 5816 5817 5818 5819 5820 5820 5821 5822 5822 5823 5823 5823 5823 5823 5824 5824 5824 5825 5825 5826 5826 5826 5827 5827 5827 5827 5827 5827 5827 5827 5827 5827 5827 5827 5827 5827 5827 5827 5827 5827 5827 5827 5827 5826
5708 5712 5715 5719 5723 5727 5730 5733 5736 5739 5742 5744 5747 5748 5750 5753 5755 5756 5758 5762 5764 5765 5766 5768 5771 5773 5776 5777 5777 5776 5774 5776 5778 5780 5781 5782 5783 5784 5786 5788 5789 5792 5793 5796 5798 5799 5801 5803 5805 5806 5807 5807 5808 5808 5808 5809 5810 5811 5812 5814 5815 5816 5817 5818 5818 5819 5820 5820 5821 5821 5821 5821 5822 5822 5822 5823 5823 5823 5824 5824 5824 5824 5825 5825 5825 5825 5825 5825 5825 5825 5825 5825 5825 5825 5825 5826 5826 5826 5825 5825 5825 5825 5825
5702 5706 5709 5713 5717 5721 5724 5728 5731 5734 5737 5740 5742 5744 5746 5748 5751 5753 5755 5757 5760 5763 5764 5765 5768 5770 5771 5772 5774 5774 5772 5774 5776 5778 5779 5780 5781 5783 5784 5786 5787 5789 5791 5793 5794 5796 5798 5800 5802 5804 5805 5805 5805 5806 5806 5807 5808 5809 5810 5812 5813 5814 5815 5816 5816 5817 5818 5819 5819 5819 5819 5819 5820 5820 5820 5821 5821 5822 5822 5822 5822 5822 5823 5823 5823 5823 5823 5823 5823 5823 5824 5824 5824 5824 5824 5824 5824 5824 5824 5824 5823 5823 5823
5695 5699 5703 5707 5711 5714 5718 5722 5726 5729 5732 5735 5738 5740 5742 5744 5747 5749 5751 5753 5756 5759 5762 5763 5764 5765 5766 5768 5771 5772 5770 5772 5774 5776 5777 5778 5779 5780 5782 5783 5785 5786 5788 5790 5791 5793 5795 5797 5799 5801 5803 5803 5803 5803 5804 5805 5806 5807 5808 5809 5811 5812 5813 5813 5814 5815 5816 5817 5818 5817 5817 5818 5818 5818 5819 5819 5819 5819 5820 5820 5820 5820 5821 5821 5821 5821 5821 5822 5822 5822 5822 5822 5822 5822 5822 5822 5822 5822 5822 5822 5822 5822 5822
5689 5693 5697 5701 5705 5708 5713 5716 5720 5724 5727 5730 5733 5735 5738 5740 5743 5745 5747 5749 5752 5755 5758 5759 5760 5762 5763 5765 5768 5770 5768 5770 5772 5774 5775 5776 5777 5778 5780 5781 5783 5784 5785 5787 5788 5790 5792 5794 5797 5799 5800 5801 5801 5801 5802 5803 5804 5805 5807 5808 5808 5809 5810 5811 5812 5813 5814 5815 5815 5815 5815 5816 5816 5817 5817 5817 5817 5818 5818 5818 5818 5818 5818 5819 5819 5819 5819 5820 5820 5820 5820 5820 5820 5821 5821 5821 5821 5821 5820 5820 5820 5820 5820
5682 5686 5690 5695 5699 5703 5706 5710 5714 5718 5722 5725 5728 5731 5734 5737 5739 5741 5743 5746 5748 5751 5754 5757 5759 5760 5761 5763 5766 5768 5767 5768 5770 5771 5772 5773 5774 5776 5778 5779 5780 5782 5783 5784 5786 5787 5789 5791 5794 5796 5798 5798 5798 5799 5800 5801 5802 5803 5805 5806 5807 5807 5808 5809 5810 5811 5811 5813 5813 5813 5813 5814 5814 5814 5815 5815 5815 5816 5816 5816 5816 5817 5817 5817 5817 5818 5818 5818 5818 5818 5818 5819 5819 5819 5819 5819 5819 5819 5819 5818 5818 5818 5818
5676 5680 5684 5688 5693 5697 5700 5704 5708 5712 5716 5720 5723 5726 5730 5732 5735 5737 5740 5742 5745 5747 5750 5755 5757 5758 5759 5761 5764 5766 5766 5766 5767 5768 5769 5770 5771 5773 5774 5776 5778 5779 5780 5782 5783 5784 5786 5788 5791 5793 5795 5796 5796 5797 5798 5799 5800 5802 5803 5804 5805 5805 5806 5807 5808 5808 5809 5811 5812 5812 5812 5812 5812 5812 5813 5813 5813 5814 5814 5814 5814 5815 5815 5815 5815 5816 5816 5816 5817 5817 5817 5817 5817 5817 5818 5817 5817 5817 5817 5817 5817 5817 5817
5670 5673 5677 5682 5686 5690 5694 5698 5702 5707 5711 5714 5718 5722 5725 5728 5731 5733 5736 5738 5741 5744 5747 5751 5754 5756 5757 5759 5763 5765 5765 5764 5765 5765 5766 5766 5768 5769 5771 5773 5774 5776 5778 5779 5780 5782 5783 5786 5788 5791 5792 5793 5794 5795 5796 5797 5798 5799 5801 5802 5803 5803 5804 5805 5806 5806 5807 5808 5809 5810 5810 5809 5810 5810 5810 5811 5811 5812 5812 5813 5813 5813 5813 5813 5813 5814 5814 5814 5815 5815 5815 5815 5816 5816 5816 5816 5815 5815 5815 5815 5815 5815 5815
5665 5668 5671 5676 5680 5684 5688 5692 5696 5701 5705 5709 5713 5717 5720 5724 5727 5729 5732 5735 5738 5741 5743 5747 5751 5753 5755 5758 5760 5762 5764 5763 5762 5763 5763 5763 5764 5766 5767 5769 5771 5773 5775 5776 5778 5779 5781 5783 5786 5788 5790 5791 5792 5793 5793 5795 5796 5797 5799 5800 5801 5802 5802 5803 5804 5804 5804 5806 5807 5807 5808 5808 5808 5808 5808 5808 5809 5810 5810 5811 5811 5811 5811 5811 5812 5812 5813 5813 5813 5813 5813 5814 5814 5814 5814 5814 5814 5813 5813 5813 5813 5813 5813
5660 5662 5665 5669 5673 5678 5683 5687 5691 5695 5699 5703 5707 5711 5715 5719 5723 5726 5728 5731 5734 5737 5740 5743 5748 5751 5752 5754 5757 5760 5762 5761 5761 5761 5762 5761 5760 5761 5763 5766 5768 5771 5772 5773 5775 5776 5778 5780 5783 5785 5787 5788 5789 5790 5791 5792 5794 5795 5797 5798 5799 5800 5800 5801 5802 5802 5803 5803 5804 5806 5806 5806 5806 5806 5806 5806 5807 5808 5808 5809 5809 5809 5809 5810 5810 5811 5811 5811 5811 5812 5812 5812 5812 5812 5812 5812 5812 5812 5812 5812 5811 5811 5811
5655 5657 5660 5663 5667 5672 5677 5681 5685 5689 5693 5698 5702 5706 5711 5715 5718 5722 5725 5728 5731 5733 5737 5740 5745 5748 5750 5751 5753 5755 5757 5757 5758 5759 5761 5760 5758 5757 5760 5763 5766 5768 5769 5771 5772 5773 5775 5778 5780 5783 5785 5786 5787 5788 5789 5790 5792 5793 5795 5796 5797 5798 5798 5799 5799 5800 5800 5801 5803 5803 5804 5804 5804 5804 5804 5804 5805 5806 5807 5807 5807 5808 5808 5808 5808 5809 5809 5809 5810 5810 5810 5810 5810 5810 5810 5810 5810 5810 5810 5810 5809 5809 5809
5649 5652 5654 5658 5661 5666 5670 5675 5680 5684 5688 5693 5697 5701 5706 5710 5714 5718 5721 5724 5727 5730 5733 5737 5741 5745 5747 5748 5749 5752 5758 5758 5757 5757 5758 5757 5755 5755 5758 5761 5763 5765 5767 5768 5769 5771 5773 5775 5778 5780 5782 5784 5785 5786 5787 5788 5790 5791 5793 5794 5795 5796 5796 5797 5797 5798 5798 5799 5800 5801 5803 5803 5803 5802 5802 5802 5803 5804 5805 5805 5806 5806 5806 5806 5807 5807 5808 5808 5808 5808 5808 5808 5808 5808 5808 5808 5808 5808 5808 5808 5808 5807 5807
5644 5647 5649 5652 5656 5660 5664 5669 5674 5679 5683 5687 5692 5696 5701 5706 5710 5713 5717 5720 5723 5726 5729 5733 5736 5740 5743 5746 5747 5748 5753 5754 5753 5753 5753 5753 5753 5754 5757 5759 5761 5763 5764 5766 5767 5768 5770 5773 5775 5778 5780 5781 5783 5784 5785 5786 5788 5789 5790 5792 5793 5794 5794 5795 5795 5796 5796 5798 5798 5799 5800 5801 5801 5800 5800 5800 5801 5802 5803 5803 5804 5804 5804 5804 5805 5805 5806 5806 5806 5807 5807 5807 5807 5807 5807 5806 5806 5806 5806 5806 5806 5805 5805
5639 5642 5643 5647 5650 5654 5658 5663 5668 5673 5678 5682 5687 5692 5696 5701 5705 5709 5713 5717 5719 5723 5726 5729 5732 5736 5739 5742 5743 5743 5745 5748 5748 5748 5748 5748 5750 5753 5755 5757 5758 5760 5762 5763 5764 5766 5768 5770 5773 5775 5777 5779 5781 5782 5783 5784 5786 5787 5788 5790 5791 5792 5793 5793 5793 5793 5794 5795 5796 5797 5798 5799 5799 5799 5798 5798 5799 5800 5801 5801 5802 5802 5803 5803 5803 5804 5804 5805 5805 5805 5805 5805 5805 5805 5804 5804 5804 5804 5804 5804 5804 5803 5803
5634 5636 5638 5641 5645 5649 5653 5658 5663 5668 5673 5677 5682 5687 5691 5696 5701 5705 5709 5713 5716 5719 5722 5725 5728 5732 5735 5738 5739 5739 5741 5743 5744 5745 5747 5748 5749 5751 5753 5754 5756 5758 5759 5761 5763 5764 5766 5768 5770 5773 5775 5777 5778 5780 5781 5782 5783 5785 5786 5788 5789 5790 5791 5791 5792 5793 5793 5793 5793 5794 5795 5797 5797 5798 5797 5797 5797 5798 5798 5799 5800 5801 5801 5801 5801 5802 5803 5803 5803 5803 5803 5803 5803 5803 5803 5803 5802 5802 5802 5802 5802 5801 5801
5628 5630 5633 5636 5640 5643 5648 5652 5657 5662 5668 5672 5677 5682 5687 5692 5696 5701 5705 5709 5712 5715 5718 5722 5725 5728 5732 5735 5736 5735 5736 5739 5740 5742 5745 5747 5748 5749 5750 5752 5754 5756 5757 5759 5761 5762 5763 5766 5768 5770 5772 5774 5776 5778 5779 5780 5781 5783 5784 5785 5787 5788 5788 5789 5790 5790 5792 5791 5791 5792 5793 5794 5795 5796 5796 5796 5796 5796 5797 5798 5798 5799 5799 5799 5800 5800 5801 5801 5801 5801 5801 5801 5801 5801 5801 5801 5800 5800 5800 5800 5800 5799 5799
5622 5625 5628 5631 5634 5639 5643 5647 5652 5658 5663 5667 5672 5677 5682 5687 5692 5697 5701 5705 5708 5712 5715 5718 5721 5725 5728 5732 5732 5732 5733 5735 5737 5740 5744 5747 5747 5747 5748 5750 5752 5754 5755 5757 5759 5760 5762 5763 5766 5768 5770 5772 5773 5775 5777 5778 5779 5780 5782 5783 5784 5786 5787 5788 5788 5788 5788 5789 5789 5790 5791 5792 5793 5793 5794 5794 5794 5794 5795 5795 5796 5797 5798 5798 5798 5798 5799 5799 5799 5799 5799 5799 5799 5799 5799 5798 5798 5798 5798 5798 5798 5797 5797
5616 5619 5622 5625 5629 5634 5638 5643 5648 5653 5658 5662 5667 5672 5678 5682 5687 5692 5697 5701 5704 5708 5711 5715 5718 5721 5725 5728 5729 5729 5731 5732 5735 5740 5744 5747 5747 5746 5745 5747 5750 5752 5754 5755 5757 5758 5760 5762 5763 5766 5768 5769 5771 5773 5774 5776 5777 5778 5780 5781 5782 5783 5784 5785 5786 5786 5787 5787 5788 5788 5789 5789 5790 5791 5791 5792 5792 5793 5793 5793 5794 5795 5795 5796 5796 5797 5797 5797 5797 5797 5797 5797 5797 5797 5797 5797 5797 5796 5796 5796 5796 5795 5795
5609 5613 5617 5620 5624 5629 5634 5638 5643 5648 5652 5657 5662 5667 5673 5678 5683 5688 5692 5697 5701 5704 5708 5712 5715 5718 5721 5724 5726 5728 5730 5731 5735 5740 5744 5746 5747 5746 5745 5745 5748 5750 5752 5754 5755 5757 5758 5759 5761 5763 5765 5767 5769 5771 5772 5774 5775 5776 5778 5779 5780 5781 5782 5783 5784 5784 5785 5785 5786 5786 5787 5788 5788 5789 5790 5790 5791 5791 5792 5792 5792 5793 5793 5794 5794 5795 5795 5795 5795 5795 5795 5795 5795 5795 5795 5795 5794 5794 5794 5794 5793 5793 5793
5603 5608 5611 5615 5619 5624 5629 5633 5638 5643 5648 5652 5657 5663 5668 5674 5679 5684 5689 5694 5698 5701 5705 5708 5712 5715 5719 5722 5724 5726 5728 5730 5734 5739 5742 5744 5745 5746 5745 5744 5746 5749 5751 5752 5753 5755 5756 5758 5759 5761 5763 5765 5767 5768 5770 5772 5773 5774 5775 5777 5778 5779 5780 5781 5782 5782 5783 5783 5784 5784 5784 5785 5786 5787 5788 5788 5789 5789 5790 5790 5791 5791 5792 5792 5793 5793 5793 5793 5793 5793 5793 5793 5793 5793 5793 5793 5793 5792 5792 5792 5791 5791 5791
5596 5602 5606 5610 5614 5619 5623 5628 5633 5639 5645 5648 5652 5658 5665 5672 5677 5681 5687 5692 5695 5698 5701 5705 5709 5713 5716 5719 5722 5725 5727 5729 5732 5736 5740 5742 5744 5746 5746 5744 5745 5747 5749 5750 5752 5753 5754 5756 5757 5759 5761 5763 5764 5766 5768 5769 5771 5772 5773 5774 5776 5777 5778 5778 5779 5780 5781 5781 5782 5783 5783 5783 5783 5784 5785 5786 5787 5787 5788 5788 5789 5789 5790 5790 5790 5791 5791 5791 5791 5791 5791 5791 5791 5791 5791 5791 5791 5790 5790 5789 5789 5789 5788
5588 5595 5600 5604 5608 5613 5619 5624 5629 5634 5640 5643 5648 5654 5662 5668 5673 5678 5683 5688 5691 5694 5698 5702 5706 5709 5713 5716 5719 5722 5725 5727 5730 5734 5737 5739 5742 5744 5745 5743 5743 5745 5747 5748 5750 5751 5752 5753 5755 5757 5759 5760 5762 5764 5766 5767 5769 5770 5771 5772 5773 5774 5775 5776 5777 5778 5778 5779 5780 5781 5781 5782 5782 5783 5783 5784 5785 5785 5786 5787 5787 5787 5788 5788 5788 5789 5789 5789 5789 5789 5789 5789 5789 5789 5789 5789 5788 5788 5788 5787 5787 5786 5786
5580 5588 5594 5599 5603 5608 5614 5620 5625 5629 5634 5639 5644 5650 5657 5663 5669 5673 5678 5683 5687 5691 5695 5698 5702 5706 5710 5713 5716 5720 5723 5726 5728 5732 5735 5736 5738 5740 5741 5739 5741 5743 5744 5746 5748 5749 5750 5752 5753 5755 5757 5758 5760 5762 5763 5765 5767 5768 5769 5770 5771 5772 5773 5774 5775 5775 5776 5777 5778 5779 5779 5780 5780 5781 5781 5782 5783 5784 5784 5785 5785 5785 5786 5786 5787 5787 5787 5787 5787 5787 5787 5787 5787 5787 5787 5787 5787 5786 5786 5785 5784 5784 5783
5573 5581 5588 5593 5598 5603 5609 5615 5620 5626 5631 5635 5640 5647 5653 5659 5665 5669 5673 5679 5684 5689 5693 5695 5699 5703 5707 5710 5714 5718 5722 5723 5727 5730 5732 5733 5734 5735 5736 5737 5739 5741 5742 5744 5745 5747 5748 5749 5751 5753 5754 5756 5758 5760 5761 5763 5764 5766 5767 5768 5769 5770 5771 5772 5773 5773 5774 5775 5776 5777 5777 5778 5778 5779 5779 5780 5781 5782 5783 5783 5783 5784 5784 5784 5785 5784 5784 5784 5785 5785 5785 5785 5785 5785 5785 5785 5784 5784 5783 5783 5782 5782 5781
5567 5575 5583 5587 5593 5599 5604 5611 5617 5622 5628 5633 5637 5643 5649 5656 5662 5666 5670 5676 5681 5686 5690 5693 5696 5699 5704 5708 5712 5716 5719 5721 5724 5728 5729 5731 5732 5733 5734 5736 5737 5739 5740 5742 5743 5744 5746 5747 5749 5750 5752 5754 5756 5758 5759 5761 5762 5763 5765 5766 5767 5768 5769 5770 5770 5771 5772 5773 5773 5774 5775 5776 5776 5777 5778 5778 5779 5780 5780 5781 5781 5782 5782 5782 5783 5783 5783 5783 5783 5783 5783 5783 5783 5783 5783 5783 5782 5782 5781 5781 5780 5779 5778
5562 5569 5577 5582 5588 5594 5600 5607 5613 5618 5624 5629 5634 5639 5646 5653 5660 5665 5669 5674 5678 5683 5687 5690 5693 5696 5702 5706 5711 5715 5718 5719 5722 5725 5727 5728 5730 5731 5734 5734 5735 5737 5738 5739 5740 5742 5743 5745 5746 5748 5750 5752 5753 5755 5757 5758 5760 5761 5763 5764 5765 5766 5767 5768 5768 5769 5770 5771 5772 5773 5773 5774 5775 5775 5776 5776 5777 5777 5778 5778 5779 5780 5780 5780 5780 5780 5780 5780 5780 5780 5780 5780 5780 5781 5780 5780 5780 5779 5779 5778 5778 5777 5776
5557 5565 5572 5578 5584 5590 5596 5603 5610 5615 5620 5625 5631 5636 5642 5650 5658 5664 5668 5672 5676 5680 5684 5687 5690 5694 5700 5706 5711 5714 5717 5718 5719 5722 5724 5726 5728 5730 5732 5733 5733 5735 5735 5737 5738 5739 5740 5742 5744 5746 5748 5750 5751 5753 5755 5756 5758 5759 5761 5762 5763 5764 5765 5765 5766 5767 5768 5768 5770 5771 5772 5772 5773 5773 5774 5775 5775 5776 5776 5776 5777 5777 5778 5778 5778 5778 5778 5778 5778 5778 5778 5778 5778 5778 5778 5778 5778 5777 5777 5776 5775 5774 5773
5553 5561 5568 5574 5580 5586 5593 5600 5606 5612 5617 5622 5628 5634 5638 5646 5653 5660 5665 5670 5674 5678 5681 5684 5688 5693 5698 5704 5709 5713 5715 5716 5718 5721 5723 5724 5725 5727 5729 5730 5731 5732 5733 5734 5735 5736 5738 5739 5741 5743 5745 5747 5749 5751 5752 5754 5756 5758 5759 5760 5761 5762 5763 5763 5764 5764 5765 5766 5768 5768 5769 5770 5771 5772 5772 5773 5773 5774 5774 5774 5775 5775 5775 5776 5776 5776 5776 5776 5776 5776 5776 5776 5776 5776 5776 5775 5775 5775 5774 5773 5773 5772 5771
5550 5558 5564 5570 5577 5583 5590 5597 5603 5608 5613 5618 5625 5632 5636 5643 5649 5656 5662 5666 5670 5673 5677 5681 5686 5691 5696 5702 5706 5709 5711 5713 5716 5719 5721 5722 5722 5723 5725 5726 5728 5729 5730 5731 5732 5733 5735 5737 5739 5741 5743 5745 5747 5748 5750 5752 5753 5755 5757 5758 5759 5760 5761 5761 5762 5762 5763 5764 5765 5766 5767 5768 5769 5769 5770 5771 5771 5772 5772 5773 5773 5773 5774 5774 5774 5774 5774 5774 5774 5774 5774 5773 5773 5773 5773 5773 5773 5772 5772 5771 5770 5770 5769
5547 5554 5561 5567 5573 5580 5587 5594 5600 5606 5611 5616 5623 5629 5633 5640 5648 5654 5659 5662 5665 5669 5674 5679 5684 5688 5693 5698 5703 5706 5709 5711 5713 5716 5718 5719 5720 5721 5722 5723 5724 5726 5727 5728 5729 5730 5732 5734 5736 5738 5740 5742 5744 5746 5748 5750 5752 5753 5755 5756 5757 5758 5758 5759 5759 5760 5761 5762 5763 5764 5765 5766 5767 5767 5768 5769 5769 5769 5770 5770 5771 5771 5771 5772 5772 5772 5772 5772 5772 5772 5771 5771 5771 5771 5770 5770 5770 5769 5769 5768 5768 5767 5767
5544 5551 5558 5564 5571 5578 5585 5591 5598 5604 5609 5614 5621 5627 5632 5638 5646 5652 5657 5660 5664 5668 5673 5677 5681 5686 5691 5695 5700 5704 5707 5709 5712 5713 5714 5715 5716 5718 5719 5719 5721 5723 5725 5726 5727 5728 5730 5732 5733 5735 5738 5740 5742 5744 5746 5748 5750 5751 5753 5754 5755 5756 5756 5757 5758 5758 5759 5760 5761 5762 5763 5763 5764 5765 5765 5766 5767 5767 5768 5768 5768 5768 5769 5769 5769 5770 5770 5769 5769 5769 5769 5768 5768 5768 5768 5768 5767 5767 5766 5766 5765 5765 5764
5541 5548 5556 5563 5569 5576 5583 5590 5596 5602 5608 5613 5619 5625 5630 5637 5643 5650 5654 5659 5663 5666 5669 5673 5678 5684 5688 5693 5697 5701 5705 5707 5708 5709 5712 5713 5714 5715 5716 5717 5719 5721 5722 5723 5725 5726 5728 5729 5731 5733 5736 5738 5740 5742 5744 5746 5748 5749 5751 5752 5753 5754 5754 5755 5756 5756 5757 5758 5759 5760 5761 5762 5763 5763 5763 5764 5765 5765 5765 5766 5766 5766 5766 5767 5767 5767 5767 5767 5767 5766 5766 5766 5766 5765 5765 5765 5765 5764 5764 5763 5763 5762 5762
5538 5546 5554 5562 5568 5575 5582 5588 5595 5600 5606 5612 5617 5623 5628 5636 5642 5647 5652 5657 5661 5663 5666 5670 5676 5682 5687 5691 5694 5698 5702 5703 5706 5709 5711 5713 5714 5714 5714 5717 5718 5720 5720 5721 5722 5723 5725 5727 5729 5732 5734 5737 5739 5741 5743 5744 5746 5747 5748 5750 5751 5752 5752 5753 5754 5755 5756 5757 5758 5758 5759 5760 5761 5761 5762 5762 5763 5763 5763 5764 5764 5764 5764 5764 5764 5764 5764 5764 5764 5763 5763 5763 5763 5763 5763 5762 5762 5762 5761 5761 5760 5760 5759
5538 5546 5553 5561 5568 5575 5581 5588 5593 5599 5605 5610 5616 5622 5629 5636 5640 5644 5649 5654 5658 5662 5665 5669 5674 5679 5684 5688 5692 5696 5698 5701 5704 5708 5711 5713 5713 5713 5713 5715 5716 5717 5718 5719 5720 5721 5723 5725 5728 5730 5733 5736 5738 5739 5741 5743 5744 5745 5746 5748 5748 5749 5750 5751 5752 5753 5754 5755 5756 5757 5758 5758 5759 5759 5760 5760 5761 5761 5762 5762 5762 5762 5762 5761 5761 5762 5761 5761 5761 5761 5761 5761 5760 5760 5760 5760 5759 5759 5759 5758 5758 5757 5757
5538 5546 5553 5561 5568 5574 5581 5587 5592 5598 5603 5609 5614 5620 5627 5633 5638 5642 5646 5652 5656 5660 5663 5668 5672 5677 5681 5684 5688 5692 5695 5699 5703 5707 5709 5711 5711 5711 5713 5713 5714 5715 5716 5717 5718 5720 5722 5724 5727 5729 5732 5734 5737 5738 5739 5741 5742 5743 5744 5745 5746 5747 5748 5749 5750 5752 5753 5753 5754 5755 5755 5756 5757 5757 5758 5758 5759 5759 5759 5760 5760 5760 5760 5759 5759 5759 5759 5759 5759 5758 5758 5758 5758 5758 5758 5757 5757 5757 5756 5756 5755 5754 5754
5539 5547 5554 5562 5568 5574 5580 5586 5591 5597 5602 5608 5612 5618 5625 5630 5635 5638 5643 5648 5652 5656 5660 5666 5670 5674 5678 5681 5685 5689 5693 5698 5702 5705 5708 5708 5709 5711 5711 5712 5713 5713 5714 5715 5717 5719 5721 5723 5726 5728 5731 5733 5735 5737 5738 5739 5740 5741 5742 5743 5744 5745 5746 5748 5749 5750 5751 5752 5752 5753 5753 5754 5754 5755 5756 5756 5757 5757 5757 5757 5757 5758 5758 5758 5757 5757 5757 5756 5756 5756 5756 5756 5755 5755 5755 5755 5754 5754 5753 5753 5753 5752 5751
5541 5548 5556 5563 5569 5575 5581 5586 5591 5597 5601 5605 5610 5615 5622 5628 5632 5636 5641 5645 5650 5654 5659 5664 5668 5673 5676 5679 5683 5688 5693 5697 5701 5704 5706 5706 5708 5709 5710 5710 5711 5711 5713 5714 5716 5718 5720 5722 5725 5727 5729 5731 5733 5735 5736 5737 5738 5738 5739 5741 5742 5743 5744 5746 5747 5748 5749 5749 5750 5751 5751 5752 5753 5753 5753 5754 5754 5754 5754 5755 5755 5755 5755 5755 5755 5754 5754 5754 5754 5753 5753 5753 5753 5753 5752 5752 5752 5751 5751 5751 5750 5749 5749
5543 5550 5557 5564 5570 5576 5582 5588 5592 5597 5601 5604 5608 5613 5619 5626 5631 5635 5641 5644 5648 5653 5658 5662 5667 5671 5675 5679 5683 5687 5691 5695 5699 5702 5703 5704 5706 5707 5708 5710 5711 5712 5713 5714 5715 5717 5719 5721 5723 5725 5727 5730 5732 5733 5734 5735 5736 5737 5737 5738 5740 5741 5743 5744 5745 5746 5747 5748 5748 5749 5749 5750 5750 5751 5751 5752 5752 5752 5752 5752 5752 5752 5752 5752 5752 5752 5752 5752 5751 5751 5751 5750 5750 5750 5750 5749 5749 5749 5748 5748 5748 5747 5746
5545 5552 5559 5565 5571 5578 5584 5588 5593 5597 5600 5604 5607 5611 5618 5624 5630 5634 5639 5643 5647 5651 5656 5661 5665 5669 5674 5678 5682 5686 5689 5693 5697 5699 5701 5702 5704 5705 5707 5709 5711 5712 5712 5713 5713 5714 5716 5719 5721 5723 5726 5728 5730 5731 5733 5733 5734 5735 5735 5737 5738 5739 5740 5742 5743 5744 5745 5745 5746 5747 5747 5748 5748 5748 5749 5749 5749 5749 5749 5749 5749 5749 5749 5749 5749 5749 5749 5749 5749 5748 5748 5748 5748 5747 5747 5747 5747 5747 5746 5746 5745 5745 5744
5548 5555 5561 5568 5574 5579 5584 5589 5593 5597 5600 5603 5606 5610 5616 5622 5628 5632 5636 5641 5645 5650 5655 5660 5664 5667 5672 5676 5680 5684 5688 5691 5694 5698 5699 5701 5702 5704 5706 5707 5708 5709 5709 5710 5711 5712 5714 5717 5719 5722 5724 5726 5728 5730 5731 5732 5732 5733 5734 5734 5736 5737 5738 5739 5741 5741 5742 5743 5743 5744 5744 5745 5745 5746 5746 5747 5747 5747 5747 5747 5747 5747 5747 5747 5747 5747 5747 5747 5746 5746 5745 5745 5745 5745 5744 5744 5744 5744 5744 5743 5743 5742 5742
5552 5558 5564 5570 5576 5581 5586 5590 5593 5597 5600 5603 5606 5609 5614 5620 5626 5632 5636 5641 5645 5649 5654 5658 5662 5666 5671 5675 5678 5682 5686 5690 5693 5696 5698 5699 5701 5702 5704 5705 5705 5706 5707 5708 5710 5711 5713 5716 5718 5720 5723 5724 5726 5728 5729 5730 5731 5731 5732 5733 5733 5735 5736 5737 5738 5739 5739 5740 5740 5741 5742 5742 5743 5743 5744 5744 5744 5744 5744 5744 5744 5744 5744 5744 5744 5744 5744 5744 5743 5743 5743 5743 5742 5742 5742 5742 5742 5742 5742 5741 5741 5740 5739
5555 5561 5567 5573 5578 5583 5588 5591 5595 5598 5601 5603 5606 5609 5613 5618 5625 5632 5637 5640 5644 5648 5653 5658 5662 5666 5670 5673 5678 5682 5686 5689 5693 5695 5697 5698 5699 5701 5702 5703 5703 5704 5706 5707 5709 5711 5713 5715 5717 5719 5721 5723 5725 5727 5728 5728 5729 5730 5730 5731 5732 5733 5733 5734 5735 5736 5736 5737 5737 5738 5739 5739 5740 5741 5741 5741 5742 5742 5742 5742 5741 5742 5742 5742 5742 5742 5742 5741 5741 5741 5741 5740 5740 5740 5740 5740 5740 5739 5739 5739 5738 5738 5737